Year,Month,Day,Hour,Minute,Value (Times are PST for temperature in C)
2018,08,08,00,00,25.00
2018,08,08,00,01,25.10
2018,08,08,00,02,25.30
2018,08,08,00,03,25.40
2018,08,08,00,04,25.50
2018,08,08,00,05,25.60
2018,08,08,00,06,25.80
2018,08,08,00,07,25.90
2018,08,08,00,08,25.90
2018,08,08,00,09,25.90
2018,08,08,00,10,26.00
2018,08,08,00,11,26.10
2018,08,08,00,12,26.10
2018,08,08,00,13,26.10
2018,08,08,00,14,26.10
2018,08,08,00,15,26.10
2018,08,08,00,16,26.10
2018,08,08,00,17,26.10
2018,08,08,00,18,26.10
2018,08,08,00,19,26.10
2018,08,08,00,20,26.10
2018,08,08,00,21,26.00
2018,08,08,00,22,26.00
2018,08,08,00,23,26.00
2018,08,08,00,24,25.90
2018,08,08,00,25,25.90
2018,08,08,00,26,25.90
2018,08,08,00,27,25.90
2018,08,08,00,28,25.90
2018,08,08,00,29,25.90
2018,08,08,00,30,25.80
2018,08,08,00,31,25.80
2018,08,08,00,32,25.80
2018,08,08,00,33,25.70
2018,08,08,00,34,25.70
2018,08,08,00,35,25.60
2018,08,08,00,36,25.60
2018,08,08,00,37,25.50
2018,08,08,00,38,25.50
2018,08,08,00,39,25.40
2018,08,08,00,40,25.40
2018,08,08,00,41,25.30
2018,08,08,00,42,25.30
2018,08,08,00,43,25.30
2018,08,08,00,44,25.20
2018,08,08,00,45,25.20
2018,08,08,00,46,25.10
2018,08,08,00,47,25.10
2018,08,08,00,48,25.10
2018,08,08,00,49,25.00
2018,08,08,00,50,25.00
2018,08,08,00,51,24.90
2018,08,08,00,52,24.90
2018,08,08,00,53,24.80
2018,08,08,00,54,24.80
2018,08,08,00,55,24.70
2018,08,08,00,56,24.70
2018,08,08,00,57,24.70
2018,08,08,00,58,24.70
2018,08,08,00,59,24.60
2018,08,08,01,00,24.60
2018,08,08,01,01,24.60
2018,08,08,01,02,24.60
2018,08,08,01,03,24.60
2018,08,08,01,04,24.60
2018,08,08,01,05,24.60
2018,08,08,01,06,24.60
2018,08,08,01,07,24.60
2018,08,08,01,08,24.60
2018,08,08,01,09,24.60
2018,08,08,01,10,24.60
2018,08,08,01,11,24.60
2018,08,08,01,12,24.60
2018,08,08,01,13,24.60
2018,08,08,01,14,24.60
2018,08,08,01,15,24.60
2018,08,08,01,16,24.60
2018,08,08,01,17,24.60
2018,08,08,01,18,24.60
2018,08,08,01,19,24.60
2018,08,08,01,20,24.60
2018,08,08,01,21,24.60
2018,08,08,01,22,24.60
2018,08,08,01,23,24.70
2018,08,08,01,24,24.70
2018,08,08,01,25,24.70
2018,08,08,01,26,24.70
2018,08,08,01,27,24.70
2018,08,08,01,28,24.70
2018,08,08,01,29,24.70
2018,08,08,01,30,24.70
2018,08,08,01,31,24.70
2018,08,08,01,32,24.70
2018,08,08,01,33,24.70
2018,08,08,01,34,24.70
2018,08,08,01,35,24.70
2018,08,08,01,36,24.70
2018,08,08,01,37,24.70
2018,08,08,01,38,24.70
2018,08,08,01,39,24.70
2018,08,08,01,40,24.60
2018,08,08,01,41,24.60
2018,08,08,01,42,24.60
2018,08,08,01,43,24.60
2018,08,08,01,44,24.60
2018,08,08,01,45,24.60
2018,08,08,01,46,24.50
2018,08,08,01,47,24.50
2018,08,08,01,48,24.50
2018,08,08,01,49,24.50
2018,08,08,01,50,24.50
2018,08,08,01,51,24.50
2018,08,08,01,52,24.60
2018,08,08,01,53,24.60
2018,08,08,01,54,24.60
2018,08,08,01,55,24.60
2018,08,08,01,56,24.60
2018,08,08,01,57,24.60
2018,08,08,01,58,24.60
2018,08,08,01,59,24.60
2018,08,08,02,00,24.60
2018,08,08,02,01,24.60
2018,08,08,02,02,24.60
2018,08,08,02,03,24.60
2018,08,08,02,04,24.60
2018,08,08,02,05,24.60
2018,08,08,02,06,24.60
2018,08,08,02,07,24.70
2018,08,08,02,08,24.70
2018,08,08,02,09,24.70
2018,08,08,02,10,24.70
2018,08,08,02,11,24.70
2018,08,08,02,12,24.70
2018,08,08,02,13,24.70
2018,08,08,02,14,24.70
2018,08,08,02,15,24.70
2018,08,08,02,16,24.70
2018,08,08,02,17,24.70
2018,08,08,02,18,24.70
2018,08,08,02,19,24.70
2018,08,08,02,20,24.60
2018,08,08,02,21,24.60
2018,08,08,02,22,24.50
2018,08,08,02,23,24.50
2018,08,08,02,24,24.40
2018,08,08,02,25,24.40
2018,08,08,02,26,24.30
2018,08,08,02,27,24.30
2018,08,08,02,28,24.30
2018,08,08,02,29,24.20
2018,08,08,02,30,24.20
2018,08,08,02,31,24.10
2018,08,08,02,32,24.10
2018,08,08,02,33,24.10
2018,08,08,02,34,24.10
2018,08,08,02,35,24.00
2018,08,08,02,36,24.00
2018,08,08,02,37,23.90
2018,08,08,02,38,23.90
2018,08,08,02,39,23.90
2018,08,08,02,40,23.90
2018,08,08,02,41,23.90
2018,08,08,02,42,23.90
2018,08,08,02,43,23.90
2018,08,08,02,44,23.90
2018,08,08,02,45,23.90
2018,08,08,02,46,23.90
2018,08,08,02,47,23.90
2018,08,08,02,48,23.90
2018,08,08,02,49,23.90
2018,08,08,02,50,24.00
2018,08,08,02,51,24.00
2018,08,08,02,52,24.00
2018,08,08,02,53,24.00
2018,08,08,02,54,24.10
2018,08,08,02,55,24.10
2018,08,08,02,56,24.10
2018,08,08,02,57,24.00
2018,08,08,02,58,24.00
2018,08,08,02,59,23.90
2018,08,08,03,00,23.90
2018,08,08,03,01,23.90
2018,08,08,03,02,23.80
2018,08,08,03,03,23.80
2018,08,08,03,04,23.80
2018,08,08,03,05,23.80
2018,08,08,03,06,23.80
2018,08,08,03,07,23.80
2018,08,08,03,08,23.80
2018,08,08,03,09,23.80
2018,08,08,03,10,23.70
2018,08,08,03,11,23.70
2018,08,08,03,12,23.70
2018,08,08,03,13,23.60
2018,08,08,03,14,23.50
2018,08,08,03,15,23.50
2018,08,08,03,16,23.40
2018,08,08,03,17,23.30
2018,08,08,03,18,23.20
2018,08,08,03,19,23.20
2018,08,08,03,20,23.10
2018,08,08,03,21,23.00
2018,08,08,03,22,23.00
2018,08,08,03,23,22.90
2018,08,08,03,24,22.80
2018,08,08,03,25,22.80
2018,08,08,03,26,22.70
2018,08,08,03,27,22.70
2018,08,08,03,28,22.60
2018,08,08,03,29,22.50
2018,08,08,03,30,22.50
2018,08,08,03,31,22.40
2018,08,08,03,32,22.40
2018,08,08,03,33,22.40
2018,08,08,03,34,22.30
2018,08,08,03,35,22.30
2018,08,08,03,36,22.30
2018,08,08,03,37,22.20
2018,08,08,03,38,22.20
2018,08,08,03,39,22.20
2018,08,08,03,40,22.20
2018,08,08,03,41,22.20
2018,08,08,03,42,22.20
2018,08,08,03,43,22.20
2018,08,08,03,44,22.20
2018,08,08,03,45,22.20
2018,08,08,03,46,22.20
2018,08,08,03,47,22.20
2018,08,08,03,48,22.30
2018,08,08,03,49,22.30
2018,08,08,03,50,22.30
2018,08,08,03,51,22.40
2018,08,08,03,52,22.40
2018,08,08,03,53,22.40
2018,08,08,03,54,22.40
2018,08,08,03,55,22.40
2018,08,08,03,56,22.40
2018,08,08,03,57,22.40
2018,08,08,03,58,22.50
2018,08,08,03,59,22.50
2018,08,08,04,00,22.50
2018,08,08,04,01,22.50
2018,08,08,04,02,22.60
2018,08,08,04,03,22.60
2018,08,08,04,04,22.60
2018,08,08,04,05,22.60
2018,08,08,04,06,22.50
2018,08,08,04,07,22.50
2018,08,08,04,08,22.40
2018,08,08,04,09,22.40
2018,08,08,04,10,22.30
2018,08,08,04,11,22.30
2018,08,08,04,12,22.20
2018,08,08,04,13,22.10
2018,08,08,04,14,22.10
2018,08,08,04,15,22.00
2018,08,08,04,16,21.90
2018,08,08,04,17,21.80
2018,08,08,04,18,21.80
2018,08,08,04,19,21.70
2018,08,08,04,20,21.70
2018,08,08,04,21,21.60
2018,08,08,04,22,21.60
2018,08,08,04,23,21.60
2018,08,08,04,24,21.60
2018,08,08,04,25,21.60
2018,08,08,04,26,21.70
2018,08,08,04,27,21.70
2018,08,08,04,28,21.70
2018,08,08,04,29,21.70
2018,08,08,04,30,21.70
2018,08,08,04,31,21.80
2018,08,08,04,32,21.80
2018,08,08,04,33,21.80
2018,08,08,04,34,21.90
2018,08,08,04,35,21.90
2018,08,08,04,36,22.00
2018,08,08,04,37,22.00
2018,08,08,04,38,22.10
2018,08,08,04,39,22.10
2018,08,08,04,40,22.10
2018,08,08,04,41,22.00
2018,08,08,04,42,22.00
2018,08,08,04,43,21.90
2018,08,08,04,44,21.90
2018,08,08,04,45,21.80
2018,08,08,04,46,21.80
2018,08,08,04,47,21.80
2018,08,08,04,48,21.80
2018,08,08,04,49,21.90
2018,08,08,04,50,21.90
2018,08,08,04,51,21.90
2018,08,08,04,52,22.00
2018,08,08,04,53,22.00
2018,08,08,04,54,22.10
2018,08,08,04,55,22.10
2018,08,08,04,56,22.10
2018,08,08,04,57,22.10
2018,08,08,04,58,22.10
2018,08,08,04,59,22.20
2018,08,08,05,00,22.20
2018,08,08,05,01,22.20
2018,08,08,05,02,22.10
2018,08,08,05,03,22.10
2018,08,08,05,04,22.10
2018,08,08,05,05,22.00
2018,08,08,05,06,22.00
2018,08,08,05,07,21.90
2018,08,08,05,08,21.80
2018,08,08,05,09,21.80
2018,08,08,05,10,21.70
2018,08,08,05,11,21.60
2018,08,08,05,12,21.60
2018,08,08,05,13,21.50
2018,08,08,05,14,21.40
2018,08,08,05,15,21.30
2018,08,08,05,16,21.20
2018,08,08,05,17,21.20
2018,08,08,05,18,21.10
2018,08,08,05,19,21.00
2018,08,08,05,20,20.90
2018,08,08,05,21,20.90
2018,08,08,05,22,20.80
2018,08,08,05,23,20.80
2018,08,08,05,24,20.70
2018,08,08,05,25,20.70
2018,08,08,05,26,20.70
2018,08,08,05,27,20.70
2018,08,08,05,28,20.60
2018,08,08,05,29,20.60
2018,08,08,05,30,20.50
2018,08,08,05,31,20.50
2018,08,08,05,32,20.40
2018,08,08,05,33,20.40
2018,08,08,05,34,20.30
2018,08,08,05,35,20.30
2018,08,08,05,36,20.30
2018,08,08,05,37,20.20
2018,08,08,05,38,20.20
2018,08,08,05,39,20.10
2018,08,08,05,40,20.10
2018,08,08,05,41,20.00
2018,08,08,05,42,20.00
2018,08,08,05,43,19.90
2018,08,08,05,44,19.90
2018,08,08,05,45,19.80
2018,08,08,05,46,19.80
2018,08,08,05,47,19.80
2018,08,08,05,48,19.80
2018,08,08,05,49,19.90
2018,08,08,05,50,19.90
2018,08,08,05,51,20.00
2018,08,08,05,52,20.10
2018,08,08,05,53,20.20
2018,08,08,05,54,20.30
2018,08,08,05,55,20.50
2018,08,08,05,56,20.60
2018,08,08,05,57,20.70
2018,08,08,05,58,20.80
2018,08,08,05,59,20.90
2018,08,08,06,00,20.90
2018,08,08,06,01,21.00
2018,08,08,06,02,21.10
2018,08,08,06,03,21.10
2018,08,08,06,04,21.20
2018,08,08,06,05,21.20
2018,08,08,06,06,21.20
2018,08,08,06,07,21.20
2018,08,08,06,08,21.20
2018,08,08,06,09,21.20
2018,08,08,06,10,21.20
2018,08,08,06,11,21.20
2018,08,08,06,12,21.10
2018,08,08,06,13,21.10
2018,08,08,06,14,21.10
2018,08,08,06,15,21.10
2018,08,08,06,16,21.00
2018,08,08,06,17,21.00
2018,08,08,06,18,20.90
2018,08,08,06,19,20.90
2018,08,08,06,20,20.80
2018,08,08,06,21,20.80
2018,08,08,06,22,20.80
2018,08,08,06,23,20.70
2018,08,08,06,24,20.70
2018,08,08,06,25,20.70
2018,08,08,06,26,20.70
2018,08,08,06,27,20.70
2018,08,08,06,28,20.60
2018,08,08,06,29,20.60
2018,08,08,06,30,20.60
2018,08,08,06,31,20.60
2018,08,08,06,32,20.60
2018,08,08,06,33,20.50
2018,08,08,06,34,20.50
2018,08,08,06,35,20.40
2018,08,08,06,36,20.40
2018,08,08,06,37,20.30
2018,08,08,06,38,20.20
2018,08,08,06,39,20.10
2018,08,08,06,40,20.10
2018,08,08,06,41,20.00
2018,08,08,06,42,20.00
2018,08,08,06,43,19.90
2018,08,08,06,44,20.00
2018,08,08,06,45,20.00
2018,08,08,06,46,20.00
2018,08,08,06,47,20.10
2018,08,08,06,48,20.10
2018,08,08,06,49,20.20
2018,08,08,06,50,20.20
2018,08,08,06,51,20.30
2018,08,08,06,52,20.30
2018,08,08,06,53,20.40
2018,08,08,06,54,20.50
2018,08,08,06,55,20.50
2018,08,08,06,56,20.60
2018,08,08,06,57,20.70
2018,08,08,06,58,20.80
2018,08,08,06,59,21.00
2018,08,08,07,00,21.10
2018,08,08,07,01,21.30
2018,08,08,07,02,21.40
2018,08,08,07,03,21.60
2018,08,08,07,04,21.70
2018,08,08,07,05,21.80
2018,08,08,07,06,21.90
2018,08,08,07,07,22.10
2018,08,08,07,08,22.20
2018,08,08,07,09,22.30
2018,08,08,07,10,22.40
2018,08,08,07,11,22.50
2018,08,08,07,12,22.60
2018,08,08,07,13,22.70
2018,08,08,07,14,22.80
2018,08,08,07,15,22.80
2018,08,08,07,16,22.90
2018,08,08,07,17,23.00
2018,08,08,07,18,23.10
2018,08,08,07,19,23.10
2018,08,08,07,20,23.20
2018,08,08,07,21,23.30
2018,08,08,07,22,23.40
2018,08,08,07,23,23.50
2018,08,08,07,24,23.50
2018,08,08,07,25,23.60
2018,08,08,07,26,23.70
2018,08,08,07,27,23.70
2018,08,08,07,28,23.80
2018,08,08,07,29,23.80
2018,08,08,07,30,23.90
2018,08,08,07,31,24.00
2018,08,08,07,32,24.00
2018,08,08,07,33,24.10
2018,08,08,07,34,24.20
2018,08,08,07,35,24.20
2018,08,08,07,36,24.30
2018,08,08,07,37,24.30
2018,08,08,07,38,24.40
2018,08,08,07,39,24.40
2018,08,08,07,40,24.40
2018,08,08,07,41,24.40
2018,08,08,07,42,24.40
2018,08,08,07,43,24.40
2018,08,08,07,44,24.40
2018,08,08,07,45,24.40
2018,08,08,07,46,24.50
2018,08,08,07,47,24.50
2018,08,08,07,48,24.50
2018,08,08,07,49,24.60
2018,08,08,07,50,24.60
2018,08,08,07,51,24.60
2018,08,08,07,52,24.70
2018,08,08,07,53,24.70
2018,08,08,07,54,24.70
2018,08,08,07,55,24.70
2018,08,08,07,56,24.80
2018,08,08,07,57,24.80
2018,08,08,07,58,24.80
2018,08,08,07,59,24.80
2018,08,08,08,00,24.90
2018,08,08,08,01,24.90
2018,08,08,08,02,25.00
2018,08,08,08,03,25.10
2018,08,08,08,04,25.10
2018,08,08,08,05,25.10
2018,08,08,08,06,25.10
2018,08,08,08,07,25.20
2018,08,08,08,08,25.20
2018,08,08,08,09,25.20
2018,08,08,08,10,25.30
2018,08,08,08,11,25.30
2018,08,08,08,12,25.30
2018,08,08,08,13,25.30
2018,08,08,08,14,25.30
2018,08,08,08,15,25.30
2018,08,08,08,16,25.30
2018,08,08,08,17,25.30
2018,08,08,08,18,25.30
2018,08,08,08,19,25.30
2018,08,08,08,20,25.30
2018,08,08,08,21,25.30
2018,08,08,08,22,25.20
2018,08,08,08,23,25.20
2018,08,08,08,24,25.10
2018,08,08,08,25,25.10
2018,08,08,08,26,25.10
2018,08,08,08,27,25.10
2018,08,08,08,28,25.10
2018,08,08,08,29,25.10
2018,08,08,08,30,25.00
2018,08,08,08,31,25.00
2018,08,08,08,32,25.00
2018,08,08,08,33,24.90
2018,08,08,08,34,24.90
2018,08,08,08,35,24.90
2018,08,08,08,36,24.80
2018,08,08,08,37,24.80
2018,08,08,08,38,24.80
2018,08,08,08,39,24.80
2018,08,08,08,40,24.80
2018,08,08,08,41,24.90
2018,08,08,08,42,24.90
2018,08,08,08,43,24.90
2018,08,08,08,44,25.00
2018,08,08,08,45,25.00
2018,08,08,08,46,25.10
2018,08,08,08,47,25.10
2018,08,08,08,48,25.20
2018,08,08,08,49,25.20
2018,08,08,08,50,25.20
2018,08,08,08,51,25.20
2018,08,08,08,52,25.20
2018,08,08,08,53,25.20
2018,08,08,08,54,25.30
2018,08,08,08,55,25.30
2018,08,08,08,56,25.30
2018,08,08,08,57,25.30
2018,08,08,08,58,25.30
2018,08,08,08,59,25.30
2018,08,08,09,00,25.30
2018,08,08,09,01,25.30
2018,08,08,09,02,25.40
2018,08,08,09,03,25.40
2018,08,08,09,04,25.40
2018,08,08,09,05,25.40
2018,08,08,09,06,25.40
2018,08,08,09,07,25.40
2018,08,08,09,08,25.30
2018,08,08,09,09,25.30
2018,08,08,09,10,25.30
2018,08,08,09,11,25.20
2018,08,08,09,12,25.10
2018,08,08,09,13,24.90
2018,08,08,09,14,24.90
2018,08,08,09,15,24.80
2018,08,08,09,16,24.80
2018,08,08,09,17,24.80
2018,08,08,09,18,24.80
2018,08,08,09,19,24.80
2018,08,08,09,20,24.80
2018,08,08,09,21,24.80
2018,08,08,09,22,24.90
2018,08,08,09,23,24.90
2018,08,08,09,24,24.90
2018,08,08,09,25,24.90
2018,08,08,09,26,24.90
2018,08,08,09,27,24.80
2018,08,08,09,28,24.80
2018,08,08,09,29,24.80
2018,08,08,09,30,24.70
2018,08,08,09,31,24.70
2018,08,08,09,32,24.70
2018,08,08,09,33,24.70
2018,08,08,09,34,24.70
2018,08,08,09,35,24.70
2018,08,08,09,36,24.70
2018,08,08,09,37,24.70
2018,08,08,09,38,24.70
2018,08,08,09,39,24.70
2018,08,08,09,40,24.70
2018,08,08,09,41,24.70
2018,08,08,09,42,24.70
2018,08,08,09,43,24.60
2018,08,08,09,44,24.70
2018,08,08,09,45,24.70
2018,08,08,09,46,24.70
2018,08,08,09,47,24.70
2018,08,08,09,48,24.70
2018,08,08,09,49,24.70
2018,08,08,09,50,24.80
2018,08,08,09,51,24.80
2018,08,08,09,52,24.80
2018,08,08,09,53,24.80
2018,08,08,09,54,24.90
2018,08,08,09,55,24.90
2018,08,08,09,56,25.00
2018,08,08,09,57,25.10
2018,08,08,09,58,25.10
2018,08,08,09,59,25.20
2018,08,08,10,00,25.20
2018,08,08,10,01,25.20
2018,08,08,10,02,25.20
2018,08,08,10,03,25.10
2018,08,08,10,04,25.10
2018,08,08,10,05,25.10
2018,08,08,10,06,25.20
2018,08,08,10,07,25.20
2018,08,08,10,08,25.20
2018,08,08,10,09,25.30
2018,08,08,10,10,25.30
2018,08,08,10,11,25.30
2018,08,08,10,12,25.30
2018,08,08,10,13,25.30
2018,08,08,10,14,25.30
2018,08,08,10,15,25.40
2018,08,08,10,16,25.40
2018,08,08,10,17,25.30
2018,08,08,10,18,25.30
2018,08,08,10,19,25.30
2018,08,08,10,20,25.30
2018,08,08,10,21,25.30
2018,08,08,10,22,25.30
2018,08,08,10,23,25.30
2018,08,08,10,24,25.30
2018,08,08,10,25,25.30
2018,08,08,10,26,25.20
2018,08,08,10,27,25.20
2018,08,08,10,28,25.20
2018,08,08,10,29,25.20
2018,08,08,10,30,25.10
2018,08,08,10,31,25.10
2018,08,08,10,32,25.00
2018,08,08,10,33,25.00
2018,08,08,10,34,24.90
2018,08,08,10,35,25.00
2018,08,08,10,36,25.00
2018,08,08,10,37,25.00
2018,08,08,10,38,25.10
2018,08,08,10,39,25.10
2018,08,08,10,40,25.20
2018,08,08,10,41,25.20
2018,08,08,10,42,25.30
2018,08,08,10,43,25.30
2018,08,08,10,44,25.40
2018,08,08,10,45,25.50
2018,08,08,10,46,25.50
2018,08,08,10,47,25.60
2018,08,08,10,48,25.60
2018,08,08,10,49,25.60
2018,08,08,10,50,25.70
2018,08,08,10,51,25.70
2018,08,08,10,52,25.70
2018,08,08,10,53,25.70
2018,08,08,10,54,25.70
2018,08,08,10,55,25.60
2018,08,08,10,56,25.60
2018,08,08,10,57,25.60
2018,08,08,10,58,25.60
2018,08,08,10,59,25.60
2018,08,08,11,00,25.60
2018,08,08,11,01,25.60
2018,08,08,11,02,25.70
2018,08,08,11,03,25.70
2018,08,08,11,04,25.70
2018,08,08,11,05,25.70
2018,08,08,11,06,25.70
2018,08,08,11,07,25.60
2018,08,08,11,08,25.60
2018,08,08,11,09,25.60
2018,08,08,11,10,25.60
2018,08,08,11,11,25.60
2018,08,08,11,12,25.60
2018,08,08,11,13,25.60
2018,08,08,11,14,25.70
2018,08,08,11,15,25.70
2018,08,08,11,16,25.70
2018,08,08,11,17,25.70
2018,08,08,11,18,25.70
2018,08,08,11,19,25.70
2018,08,08,11,20,25.70
2018,08,08,11,21,25.70
2018,08,08,11,22,25.80
2018,08,08,11,23,25.80
2018,08,08,11,24,25.90
2018,08,08,11,25,25.90
2018,08,08,11,26,25.90
2018,08,08,11,27,25.90
2018,08,08,11,28,25.90
2018,08,08,11,29,25.90
2018,08,08,11,30,25.80
2018,08,08,11,31,25.90
2018,08,08,11,32,25.80
2018,08,08,11,33,25.80
2018,08,08,11,34,25.80
2018,08,08,11,35,25.70
2018,08,08,11,36,25.70
2018,08,08,11,37,25.70
2018,08,08,11,38,25.80
2018,08,08,11,39,25.90
2018,08,08,11,40,25.90
2018,08,08,11,41,25.90
2018,08,08,11,42,26.00
2018,08,08,11,43,26.10
2018,08,08,11,44,26.20
2018,08,08,11,45,26.20
2018,08,08,11,46,26.20
2018,08,08,11,47,26.20
2018,08,08,11,48,26.20
2018,08,08,11,49,26.20
2018,08,08,11,50,26.10
2018,08,08,11,51,26.00
2018,08,08,11,52,26.00
2018,08,08,11,53,26.00
2018,08,08,11,54,25.90
2018,08,08,11,55,25.90
2018,08,08,11,56,25.90
2018,08,08,11,57,25.90
2018,08,08,11,58,25.80
2018,08,08,11,59,25.80
2018,08,08,12,00,25.80
2018,08,08,12,01,25.80
2018,08,08,12,02,25.90
2018,08,08,12,03,25.90
2018,08,08,12,04,25.90
2018,08,08,12,05,25.90
2018,08,08,12,06,25.90
2018,08,08,12,07,25.90
2018,08,08,12,08,25.90
2018,08,08,12,09,25.90
2018,08,08,12,10,25.90
2018,08,08,12,11,25.80
2018,08,08,12,12,25.70
2018,08,08,12,13,25.70
2018,08,08,12,14,25.60
2018,08,08,12,15,25.60
2018,08,08,12,16,25.60
2018,08,08,12,17,25.60
2018,08,08,12,18,25.70
2018,08,08,12,19,25.80
2018,08,08,12,20,25.90
2018,08,08,12,21,25.90
2018,08,08,12,22,26.00
2018,08,08,12,23,26.10
2018,08,08,12,24,26.20
2018,08,08,12,25,26.30
2018,08,08,12,26,26.30
2018,08,08,12,27,26.30
2018,08,08,12,28,26.30
2018,08,08,12,29,26.40
2018,08,08,12,30,26.40
2018,08,08,12,31,26.50
2018,08,08,12,32,26.60
2018,08,08,12,33,26.70
2018,08,08,12,34,26.70
2018,08,08,12,35,26.80
2018,08,08,12,36,26.90
2018,08,08,12,37,26.90
2018,08,08,12,38,27.00
2018,08,08,12,39,27.00
2018,08,08,12,40,27.00
2018,08,08,12,41,26.90
2018,08,08,12,42,26.90
2018,08,08,12,43,27.00
2018,08,08,12,44,27.00
2018,08,08,12,45,27.00
2018,08,08,12,46,26.90
2018,08,08,12,47,26.90
2018,08,08,12,48,26.90
2018,08,08,12,49,26.90
2018,08,08,12,50,26.90
2018,08,08,12,51,26.90
2018,08,08,12,52,27.00
2018,08,08,12,53,27.00
2018,08,08,12,54,27.00
2018,08,08,12,55,27.00
2018,08,08,12,56,27.00
2018,08,08,12,57,27.00
2018,08,08,12,58,27.10
2018,08,08,12,59,27.10
2018,08,08,13,00,27.20
2018,08,08,13,01,27.30
2018,08,08,13,02,27.30
2018,08,08,13,03,27.30
2018,08,08,13,04,27.40
2018,08,08,13,05,27.40
2018,08,08,13,06,27.30
2018,08,08,13,07,27.30
2018,08,08,13,08,27.30
2018,08,08,13,09,27.40
2018,08,08,13,10,27.40
2018,08,08,13,11,27.40
2018,08,08,13,12,27.50
2018,08,08,13,13,27.60
2018,08,08,13,14,27.70
2018,08,08,13,15,27.70
2018,08,08,13,16,27.80
2018,08,08,13,17,27.90
2018,08,08,13,18,27.90
2018,08,08,13,19,28.00
2018,08,08,13,20,28.10
2018,08,08,13,21,28.20
2018,08,08,13,22,28.20
2018,08,08,13,23,28.20
2018,08,08,13,24,28.20
2018,08,08,13,25,28.20
2018,08,08,13,26,28.20
2018,08,08,13,27,28.20
2018,08,08,13,28,28.20
2018,08,08,13,29,28.20
2018,08,08,13,30,28.30
2018,08,08,13,31,28.30
2018,08,08,13,32,28.40
2018,08,08,13,33,28.50
2018,08,08,13,34,28.60
2018,08,08,13,35,28.70
2018,08,08,13,36,28.70
2018,08,08,13,37,28.60
2018,08,08,13,38,28.60
2018,08,08,13,39,28.50
2018,08,08,13,40,28.40
2018,08,08,13,41,28.30
2018,08,08,13,42,28.30
2018,08,08,13,43,28.30
2018,08,08,13,44,28.30
2018,08,08,13,45,28.40
2018,08,08,13,46,28.50
2018,08,08,13,47,28.60
2018,08,08,13,48,28.80
2018,08,08,13,49,28.90
2018,08,08,13,50,29.00
2018,08,08,13,51,29.00
2018,08,08,13,52,29.10
2018,08,08,13,53,29.20
2018,08,08,13,54,29.20
2018,08,08,13,55,29.30
2018,08,08,13,56,29.30
2018,08,08,13,57,29.40
2018,08,08,13,58,29.40
2018,08,08,13,59,29.30
2018,08,08,14,00,29.30
2018,08,08,14,01,29.30
2018,08,08,14,02,29.30
2018,08,08,14,03,29.30
2018,08,08,14,04,29.30
2018,08,08,14,05,29.30
2018,08,08,14,06,29.30
2018,08,08,14,07,29.30
2018,08,08,14,08,29.30
2018,08,08,14,09,29.30
2018,08,08,14,10,29.30
2018,08,08,14,11,29.30
2018,08,08,14,12,29.40
2018,08,08,14,13,29.30
2018,08,08,14,14,29.30
2018,08,08,14,15,29.30
2018,08,08,14,16,29.30
2018,08,08,14,17,29.40
2018,08,08,14,18,29.40
2018,08,08,14,19,29.40
2018,08,08,14,20,29.50
2018,08,08,14,21,29.50
2018,08,08,14,22,29.50
2018,08,08,14,23,29.60
2018,08,08,14,24,29.60
2018,08,08,14,25,29.70
2018,08,08,14,26,29.70
2018,08,08,14,27,29.70
2018,08,08,14,28,29.70
2018,08,08,14,29,29.70
2018,08,08,14,30,29.70
2018,08,08,14,31,29.60
2018,08,08,14,32,29.60
2018,08,08,14,33,29.60
2018,08,08,14,34,29.60
2018,08,08,14,35,29.60
2018,08,08,14,36,29.50
2018,08,08,14,37,29.50
2018,08,08,14,38,29.50
2018,08,08,14,39,29.50
2018,08,08,14,40,29.60
2018,08,08,14,41,29.60
2018,08,08,14,42,29.50
2018,08,08,14,43,29.40
2018,08,08,14,44,29.20
2018,08,08,14,45,29.10
2018,08,08,14,46,29.00
2018,08,08,14,47,28.80
2018,08,08,14,48,28.80
2018,08,08,14,49,28.80
2018,08,08,14,50,28.70
2018,08,08,14,51,28.70
2018,08,08,14,52,28.70
2018,08,08,14,53,28.70
2018,08,08,14,54,28.70
2018,08,08,14,55,28.70
2018,08,08,14,56,28.70
2018,08,08,14,57,28.70
2018,08,08,14,58,28.70
2018,08,08,14,59,28.70
2018,08,08,15,00,28.80
2018,08,08,15,01,28.80
2018,08,08,15,02,28.80
2018,08,08,15,03,28.80
2018,08,08,15,04,28.80
2018,08,08,15,05,28.70
2018,08,08,15,06,28.70
2018,08,08,15,07,28.70
2018,08,08,15,08,28.70
2018,08,08,15,09,28.70
2018,08,08,15,10,28.70
2018,08,08,15,11,28.70
2018,08,08,15,12,28.70
2018,08,08,15,13,28.70
2018,08,08,15,14,28.80
2018,08,08,15,15,28.80
2018,08,08,15,16,28.80
2018,08,08,15,17,28.90
2018,08,08,15,18,28.90
2018,08,08,15,19,29.00
2018,08,08,15,20,29.00
2018,08,08,15,21,29.00
2018,08,08,15,22,29.00
2018,08,08,15,23,29.00
2018,08,08,15,24,29.00
2018,08,08,15,25,29.00
2018,08,08,15,26,29.00
2018,08,08,15,27,29.00
2018,08,08,15,28,29.00
2018,08,08,15,29,29.10
2018,08,08,15,30,29.10
2018,08,08,15,31,29.10
2018,08,08,15,32,29.10
2018,08,08,15,33,29.10
2018,08,08,15,34,29.00
2018,08,08,15,35,29.00
2018,08,08,15,36,29.00
2018,08,08,15,37,28.90
2018,08,08,15,38,28.90
2018,08,08,15,39,28.90
2018,08,08,15,40,28.90
2018,08,08,15,41,28.90
2018,08,08,15,42,28.90
2018,08,08,15,43,29.00
2018,08,08,15,44,29.10
2018,08,08,15,45,29.10
2018,08,08,15,46,29.20
2018,08,08,15,47,29.20
2018,08,08,15,48,29.30
2018,08,08,15,49,29.30
2018,08,08,15,50,29.30
2018,08,08,15,51,29.30
2018,08,08,15,52,29.30
2018,08,08,15,53,29.30
2018,08,08,15,54,29.40
2018,08,08,15,55,29.40
2018,08,08,15,56,29.40
2018,08,08,15,57,29.50
2018,08,08,15,58,29.50
2018,08,08,15,59,29.60
2018,08,08,16,00,29.70
2018,08,08,16,01,29.80
2018,08,08,16,02,29.80
2018,08,08,16,03,29.90
2018,08,08,16,04,30.00
2018,08,08,16,05,30.00
2018,08,08,16,06,30.10
2018,08,08,16,07,30.10
2018,08,08,16,08,30.10
2018,08,08,16,09,30.10
2018,08,08,16,10,30.20
2018,08,08,16,11,30.20
2018,08,08,16,12,30.30
2018,08,08,16,13,30.30
2018,08,08,16,14,30.30
2018,08,08,16,15,30.30
2018,08,08,16,16,30.30
2018,08,08,16,17,30.40
2018,08,08,16,18,30.40
2018,08,08,16,19,30.40
2018,08,08,16,20,30.50
2018,08,08,16,21,30.50
2018,08,08,16,22,30.50
2018,08,08,16,23,30.60
2018,08,08,16,24,30.60
2018,08,08,16,25,30.60
2018,08,08,16,26,30.60
2018,08,08,16,27,30.60
2018,08,08,16,28,30.70
2018,08,08,16,29,30.70
2018,08,08,16,30,30.80
2018,08,08,16,31,30.90
2018,08,08,16,32,31.00
2018,08,08,16,33,31.20
2018,08,08,16,34,31.30
2018,08,08,16,35,31.40
2018,08,08,16,36,31.60
2018,08,08,16,37,31.70
2018,08,08,16,38,31.80
2018,08,08,16,39,31.90
2018,08,08,16,40,32.00
2018,08,08,16,41,32.10
2018,08,08,16,42,32.20
2018,08,08,16,43,32.10
2018,08,08,16,44,32.00
2018,08,08,16,45,31.80
2018,08,08,16,46,31.70
2018,08,08,16,47,31.60
2018,08,08,16,48,31.50
2018,08,08,16,49,31.40
2018,08,08,16,50,31.30
2018,08,08,16,51,31.20
2018,08,08,16,52,31.00
2018,08,08,16,53,31.00
2018,08,08,16,54,30.90
2018,08,08,16,55,30.90
2018,08,08,16,56,31.00
2018,08,08,16,57,31.00
2018,08,08,16,58,31.10
2018,08,08,16,59,31.10
2018,08,08,17,00,31.10
2018,08,08,17,01,31.10
2018,08,08,17,02,31.20
2018,08,08,17,03,31.20
2018,08,08,17,04,31.30
2018,08,08,17,05,31.30
2018,08,08,17,06,31.30
2018,08,08,17,07,31.40
2018,08,08,17,08,31.40
2018,08,08,17,09,31.30
2018,08,08,17,10,31.30
2018,08,08,17,11,31.30
2018,08,08,17,12,31.30
2018,08,08,17,13,31.30
2018,08,08,17,14,31.30
2018,08,08,17,15,31.40
2018,08,08,17,16,31.40
2018,08,08,17,17,31.50
2018,08,08,17,18,31.60
2018,08,08,17,19,31.70